DELTA 1 DEB, 18671

Orbit data source: Space-Track

DELTA 1 DEB, 18671 is space debris in SSO originally from a launch on Tue, 06 Nov 1973 UTC launched from the Air Force Western Test Range (AFWTR). Debris objects in space refer to the collection of defunct objects orbiting the Earth. Examples of debris include non-operational satellites, rocket bodies, and fragments generated from explosions, collisions, or faulty payload assembly.

Loading next visibility...
Identifier
18671, 1973-086GZ
Orbit
SSO
Country
Flag of USUS
Related business
Manufacturer
Unknown
Mission
Spacecraft
Bus & Motor
Unknown
Mass
Unknown
Launch date (UTC)
1973-11-06 (52 years ago)
Launch vehicle
Unknown
Launch site
Air Force Western Test Range (AFWTR)
Object type
Payload
Rocket body
Debris
Shape & HBR
Unknown shape, 1.1 m
Radar Cross Section
Small (<0.1 m²)

Expand to show TLE details & history
Last TLE update: 1 week ago

TLE from 1 week ago
0 DELTA 1 DEB
1 18671U 73086GZ  25340.38575075  .00000048  00000-0  67430-3 0  9996
2 18671 101.8318 296.2261 0114858  14.6021 137.0178 12.39816313612537
Epoch: 2025-12-06T09:15Z
TLE epoch observation values (Epoch: 2025-12-06T09:15:28.864Z)
Latitude
26.89654°
Longitude
-91.98801°
Altitude
1,577.101 km
Speed
7.052 km/s
True Right ascension
08h 09m 11s
True Declination
26° 46' 20"
Sunlit
Object was in full shadow at epoch
Visualization orbit readout
Latitude
Unknown
Longitude
Unknown
Altitude
Unknown
Speed
Unknown
Apparent Right ascension
Unknown
Apparent Declination
Unknown
Sunlit
N/A
Visualization observer readout
Local Sidereal Time
09:07:39
Azimuth
Unknown
Elevation
Unknown
Doppler factor
Unknown
Orbital elements
Apogee altitude
1,595.49 km
Perigee altitude
1,414.403 km
Semi-major axis
7,883.083 km
Eccentricity
0.01149
Inclination
101.8318°
RAAN
296.2261°
Arg. of periapsis
14.6021°
True anomaly
137.90576°
Mean anomaly
137.0178°
Eccentric anomaly
137.46271°
Mean motion
3.10098 °/min
Orbital period
116.09 mins
BSTAR
0.0006743
Loading maneuver chart data...
Computing Atmospheric mass density...
Loading historical data...
Loading historical data...
Loading historical data...
Loading historical data...
Loading historical data...
Loading historical data...
Loading historical data...

Documentation

Showing up to 5 results
|